星链-3641 (STARLINK-3641 )

导读 | 星芒AI

STARLINK-3641 是 SpaceX Starlink 项目中的一颗低轨通信卫星,属于第三代 Starlink 卫星(也称为 v1.5 或 Block V)。该卫星于 2023 年发射,旨在为全球提供高速、低延迟的互联网服务。它运行在约 550 公里的轨道高度,采用先进的推进系统和激光通信技术,以提高网络效率和卫星间通信能力。STARLINK-3641 与其他 Starlink 卫星协同工作,扩大覆盖范围并提升服务质量,特别是在偏远和网络基础设施薄弱的地区。

基本信息
目录编号:
51788
目录名称:
STARLINK-3641
国际标识:
2022-017W
轨道中心:
EARTH
卫星名称:
星链-3641
卫星全名:
星链-3641 (STARLINK-3641 )
卫星状态:
在轨 (已飞行1395 天)
发射日期:
2022-02-25 UTC
国别 :
美国 (US)
星等 :
--
轨道信息
数据来源 国际轨道数据 AOE轨道数据
星历时间 2025-12-21T00:30:02+0800
8小时前
查看轨道信息
2025-12-17T20:00:00+0800
3天前
查看轨道信息
半长轴 6917.9km 6917.818km
偏心率 0.0001304 0.0001446
轨道倾角 53.218° 53.219°
近地点辐角 83.621° 67.253°
升交点赤经 343.774° 358.083°
平近点角 276.493° 249.424°
近地点 538.86km 538.682km
远地点 540.666km 540.684km
周期 95.438分钟 95.436分钟
每日圈数 15.088336 15.088606
详细信息
固有亮度:
5
最大亮度:
2.5
卫星平台:
Starlink v1.5
覆盖范围:
全球
运营商:
太空探索技术公司
运营商所在国:
美国
制造商(研发单位):
太空探索技术公司
制造商所在国:
美国
使用方式:
暂无
卫星简介
星链(Starlink)计划是由太空探索技术公司(SpaceX)提出的一个巨型低轨卫星互联网星座项目,计划在2019年至2024年间在太空搭建由约1.2万颗卫星组成的“星链”网络,其中1584颗将部署在地球上空550千米处的近地轨道,并从2020年开始工作。该卫星仍在工作。
2D轨道图
3D轨道图
轨道高度分析图
轨道倾角分析图
轨道综合分析图
查看轨道综合分析图